When you browse on this site, cookies collect data to enhance your experience and personalize the content and advertising you see.
Visit our Privacy Policy to learn more. By continuing to use the site, you agree to this use of cookies and data.
  • In Norway
  • List of Countries
  • For 7 days
  • Water Temperature
  • Satellite Maps
  • Weather Map
  • Weather Widgets
  • user-avatar
    Login

    Hourly Weather Melbourne

    Today, 13 December, Thursday

    Time Temperature Precipitation Wind Pressure Humidity
    00:00 +23°C° 0 mm 1 mps 749 mmHg 70%
    01:00 +23°C° 0 mm 1 mps 748 mmHg 69%
    02:00 +23°C° 0 mm 1 mps 748 mmHg 69%
    03:00 +23°C° 0 mm 2 mps 747 mmHg 70%
    04:00 +21°C° 0 mm 1 mps 747 mmHg 73%
    05:00 +21°C° 0.5 mm 1 mps 747 mmHg 75%
    06:00 +21°C° 0.5 mm 1 mps 747 mmHg 76%
    07:00 +22°C° 0.5 mm 1 mps 747 mmHg 77%
    08:00 +23°C° 0.2 mm 2 mps 747 mmHg 74%
    09:00 +24°C° 0.2 mm 2 mps 746 mmHg 70%
    10:00 +19°C° 0 mm 5 mps 747 mmHg 96%
    11:00 +19°C° 1 mm 4 mps 747 mmHg 94%
    12:00 +19°C° 1 mm 4 mps 747 mmHg 92%
    13:00 +19°C° 1 mm 3 mps 746 mmHg 90%
    14:00 +19°C° 1 mm 3 mps 746 mmHg 90%
    15:00 +19°C° 1 mm 3 mps 746 mmHg 90%
    16:00 +19°C° 1 mm 3 mps 746 mmHg 90%
    17:00 +19°C° 0.6 mm 3 mps 746 mmHg 91%
    18:00 +18°C° 0.6 mm 3 mps 746 mmHg 93%
    19:00 +18°C° 0.6 mm 3 mps 746 mmHg 94%
    20:00 +18°C° 0.3 mm 3 mps 746 mmHg 95%
    21:00 +18°C° 0.3 mm 3 mps 746 mmHg 96%
    22:00 +19°C° 0 mm 1 mps 746 mmHg 98%
    23:00 +19°C° 0 mm 1 mps 747 mmHg 97%

    Tomorrow, 14 December, Friday

    Time Temperature Precipitation Wind Pressure Humidity
    00:00 +18°C° 0 mm 1 mps 747 mmHg 97%
    01:00 +18°C° 0 mm 1 mps 748 mmHg 97%
    02:00 +18°C° 0 mm 1 mps 748 mmHg 96%
    03:00 +16°C° 0 mm 1 mps 748 mmHg 96%
    04:00 +16°C° 0 mm 1 mps 749 mmHg 96%
    05:00 +16°C° 0.2 mm 2 mps 749 mmHg 93%
    06:00 +16°C° 0.2 mm 2 mps 750 mmHg 90%
    07:00 +16°C° 0.2 mm 3 mps 750 mmHg 87%
    08:00 +16°C° 2.2 mm 2 mps 751 mmHg 89%
    09:00 +16°C° 2.2 mm 2 mps 751 mmHg 90%
    10:00 +16°C° 2.2 mm 1 mps 751 mmHg 91%
    11:00 +19°C° 0.1 mm 1 mps 751 mmHg 83%
    12:00 +21°C° 0.1 mm 1 mps 751 mmHg 74%
    13:00 +23°C° 0.1 mm 1 mps 751 mmHg 66%
    14:00 +23°C° 0.2 mm 2 mps 751 mmHg 70%
    15:00 +23°C° 0.2 mm 2 mps 751 mmHg 74%
    16:00 +22°C° 0.2 mm 3 mps 750 mmHg 78%
    17:00 +21°C° 2.4 mm 3 mps 751 mmHg 83%
    18:00 +21°C° 2.4 mm 2 mps 751 mmHg 88%
    19:00 +20°C° 2.4 mm 2 mps 751 mmHg 94%
    20:00 +20°C° 1.5 mm 2 mps 751 mmHg 95%
    21:00 +19°C° 1.5 mm 3 mps 751 mmHg 96%
    22:00 +19°C° 1.5 mm 3 mps 751 mmHg 97%
    23:00 +19°C° 1.1 mm 2 mps 751 mmHg 97%

    Day after tomorrow, 15 December, Saturday

    Time Temperature Precipitation Wind Pressure Humidity
    00:00 +18°C° 1.1 mm 2 mps 751 mmHg 97%
    01:00 +18°C° 1.1 mm 2 mps 751 mmHg 97%
    02:00 +19°C° 0.1 mm 1 mps 751 mmHg 97%
    03:00 +19°C° 0.1 mm 1 mps 751 mmHg 96%
    04:00 +18°C° 0.1 mm 1 mps 750 mmHg 96%
    05:00 +19°C° 0 mm 1 mps 751 mmHg 92%
    06:00 +20°C° 0 mm 1 mps 751 mmHg 89%
    07:00 +22°C° 0 mm 1 mps 751 mmHg 85%
    08:00 +24°C° 0.1 mm 1 mps 751 mmHg 69%
    09:00 +26°C° 0.1 mm 2 mps 751 mmHg 54%
    10:00 +28°C° 0.1 mm 2 mps 751 mmHg 38%
    11:00 +29°C° 0 mm 2 mps 751 mmHg 34%
    12:00 +30°C° 0 mm 3 mps 751 mmHg 30%
    13:00 +31°C° 0 mm 3 mps 750 mmHg 25%
    14:00 +30°C° 0 mm 3 mps 750 mmHg 29%
    15:00 +29°C° 0 mm 3 mps 750 mmHg 34%
    16:00 +28°C° 0 mm 3 mps 750 mmHg 38%
    17:00 +26°C° 0.1 mm 2 mps 750 mmHg 48%
    18:00 +25°C° 0.1 mm 2 mps 750 mmHg 58%
    19:00 +23°C° 0.1 mm 2 mps 750 mmHg 68%
    20:00 +22°C° 0.7 mm 1 mps 750 mmHg 73%
    21:00 +20°C° 0.7 mm 1 mps 750 mmHg 78%
    22:00 +19°C° 0.7 mm 1 mps 750 mmHg 83%
    23:00 +19°C° 0.4 mm 1 mps 750 mmHg 84%

    16 December, Sunday

    Time Temperature Precipitation Wind Pressure Humidity
    00:00 +19°C° 0.4 mm 1 mps 750 mmHg 85%
    01:00 +18°C° 0.4 mm 1 mps 750 mmHg 87%
    02:00 +18°C° 0.1 mm 1 mps 750 mmHg 87%
    03:00 +18°C° 0.1 mm 1 mps 750 mmHg 87%
    04:00 +16°C° 0.1 mm 2 mps 750 mmHg 87%
    05:00 +17°C° 0.1 mm 2 mps 751 mmHg 85%
    06:00 +18°C° 0.1 mm 2 mps 751 mmHg 82%
    07:00 +19°C° 0.1 mm 3 mps 751 mmHg 79%
    08:00 +20°C° 0.3 mm 3 mps 751 mmHg 73%
    09:00 +22°C° 0.3 mm 4 mps 752 mmHg 67%
    10:00 +23°C° 0.3 mm 4 mps 752 mmHg 61%
    11:00 +25°C° 0.3 mm 4 mps 752 mmHg 57%
    12:00 +26°C° 0.3 mm 5 mps 752 mmHg 53%
    13:00 +27°C° 0.3 mm 5 mps 752 mmHg 49%
    14:00 +26°C° 0.4 mm 4 mps 752 mmHg 53%
    15:00 +25°C° 0.4 mm 3 mps 752 mmHg 57%
    16:00 +25°C° 0.4 mm 2 mps 752 mmHg 60%
    17:00 +24°C° 0.1 mm 2 mps 752 mmHg 64%
    18:00 +23°C° 0.1 mm 2 mps 752 mmHg 68%
    19:00 +23°C° 0.1 mm 1 mps 753 mmHg 72%
    20:00 +22°C° 0.1 mm 1 mps 753 mmHg 76%
    21:00 +21°C° 0.1 mm 1 mps 754 mmHg 79%
    22:00 +20°C° 0.1 mm 1 mps 754 mmHg 83%
    23:00 +20°C° 0 mm 1 mps 754 mmHg 86%

    17 December, Monday

    Time Temperature Precipitation Wind Pressure Humidity
    00:00 +18°C° 0 mm 2 mps 754 mmHg 88%
    01:00 +17°C° 0 mm 2 mps 754 mmHg 91%
    02:00 +17°C° 0 mm 2 mps 754 mmHg 92%
    03:00 +17°C° 0 mm 2 mps 754 mmHg 94%
    04:00 +17°C° 0 mm 2 mps 754 mmHg 95%
    05:00 +18°C° 0 mm 2 mps 755 mmHg 91%
    06:00 +18°C° 0 mm 2 mps 755 mmHg 88%
    07:00 +19°C° 0 mm 2 mps 756 mmHg 84%
    08:00 +21°C° 0 mm 2 mps 756 mmHg 77%
    09:00 +24°C° 0 mm 3 mps 756 mmHg 69%
    10:00 +25°C° 0 mm 3 mps 756 mmHg 62%
    11:00 +25°C° 0 mm 3 mps 756 mmHg 61%
    12:00 +26°C° 0 mm 3 mps 756 mmHg 61%
    13:00 +26°C° 0 mm 4 mps 756 mmHg 60%
    14:00 +26°C° 0 mm 4 mps 756 mmHg 62%
    15:00 +25°C° 0 mm 4 mps 756 mmHg 63%
    16:00 +25°C° 0 mm 4 mps 756 mmHg 65%
    17:00 +22°C° 0 mm 4 mps 757 mmHg 69%
    18:00 +21°C° 0 mm 4 mps 758 mmHg 73%
    19:00 +20°C° 0 mm 4 mps 758 mmHg 77%
    20:00 +19°C° 0 mm 4 mps 759 mmHg 81%
    21:00 +18°C° 0 mm 3 mps 759 mmHg 84%
    22:00 +17°C° 0 mm 3 mps 760 mmHg 88%
    23:00 +17°C° 0 mm 2 mps 760 mmHg 89%

    18 December, Tuesday

    Time Temperature Precipitation Wind Pressure Humidity
    00:00 +16°C° 0 mm 2 mps 759 mmHg 90%
    01:00 +16°C° 0 mm 2 mps 759 mmHg 92%
    02:00 +15°C° 0 mm 2 mps 759 mmHg 92%
    03:00 +15°C° 0 mm 2 mps 759 mmHg 93%
    04:00 +15°C° 0 mm 2 mps 759 mmHg 93%
    05:00 +16°C° 0 mm 2 mps 759 mmHg 90%
    06:00 +16°C° 0 mm 2 mps 759 mmHg 86%
    07:00 +18°C° 0 mm 1 mps 760 mmHg 83%
    08:00 +19°C° 0 mm 2 mps 760 mmHg 74%
    09:00 +21°C° 0 mm 2 mps 760 mmHg 65%
    10:00 +24°C° 0 mm 2 mps 760 mmHg 56%
    11:00 +26°C° 0 mm 2 mps 759 mmHg 52%
    12:00 +27°C° 0 mm 3 mps 759 mmHg 48%
    13:00 +28°C° 0 mm 3 mps 759 mmHg 44%
    14:00 +28°C° 0 mm 3 mps 758 mmHg 45%
    15:00 +28°C° 0 mm 3 mps 758 mmHg 46%
    16:00 +28°C° 0 mm 4 mps 758 mmHg 47%
    17:00 +27°C° 0 mm 3 mps 758 mmHg 54%
    18:00 +25°C° 0 mm 3 mps 758 mmHg 61%
    19:00 +24°C° 0 mm 3 mps 758 mmHg 68%
    20:00 +23°C° 0 mm 2 mps 758 mmHg 73%
    21:00 +21°C° 0 mm 2 mps 758 mmHg 78%
    22:00 +19°C° 0 mm 2 mps 758 mmHg 83%
    23:00 +19°C° 0 mm 2 mps 758 mmHg 84%
    Show more